Temperature
14 14 13 14 15 14 14 14 14 14 14 14 14 14 15 14 15 15 15 15 15 15 15 15 15 15 15 15 15 15 15 15 15 15 15 15 16 16
14 14 13 14 14 13 14 14 14 14 14 14 14 14 14 14 14 14 14 14 15 15 15 15 15 15 14 14 14 14 14 14 15 15 15 15 15 15
13 13 13 13 13 13 13 13 13 14 14 13 13 13 14 14 13 13 13 13 14 14 15 15 15 14 14 14 14 14 14 14 14 15 15 15 15 15
13 13 13 13 13 13 13 13 13 13 13 13 13 13 14 13 13 13 13 13 13 14 15 14 14 14 13 13 13 13 14 14 14 14 14 15 15 15
13 13 13 13 13 13 13 13 13 13 13 13 13 13 13 13 13 13 13 13 13 12 12 13 13 13 12 12 13 13 13 14 13 13 14 14 14 15
12 13 13 13 13 13 13 13 13 13 13 13 13 13 13 12 13 13 13 13 12 12 12 12 12 12 12 12 12 12 12 12 12 12 13 13 14 14
13 13 12 12 12 12 12 12 13 13 13 13 13 12 12 12 12 12 12 12 12 12 12 12 12 12 12 12 12 12 12 12 12 12 13 13 13 14
12 12 12 12 12 11 12 12 12 12 12 13 12 12 11 11 11 11 11 11 11 11 12 12 12 12 11 11 11 11 11 12 12 12 13 13 13 13
12 12 12 12 12 11 11 11 11 11 12 12 12 11 11 11 11 11 11 10 10 11 11 11 12 11 11 11 11 11 11 11 11 12 12 13 13 14
11 11 12 12 11 11 11 11 11 11 11 11 11 11 11 10 10 11 11 10 10 10 10 10 11 11 10 10 10 10 10 11 10 10 10 11 13 14
11 11 12 12 11 11 11 11 11 11 11 11 11 11 10 10 10 10 11 11 10 10 10 10 10 11 10 10 10 10 10 10 10 9 9 10 11 11
11 11 11 11 11 11 11 11 11 10 10 11 11 10 10 10 10 10 10 10 9 9 9 10 10 10 10 9 9 9 9 10 10 9 9 10 10 10
11 11 11 11 10 10 10 10 10 10 10 10 10 9 9 9 9 9 9 9 9 9 9 9 9 9 9 9 9 8 8 9 9 9 9 9 9 9
11 11 11 10 10 9 9 9 9 9 9 9 9 8 8 8 8 8 8 8 8 8 8 9 9 9 9 9 9 9 8 8 8 8 8 8 9 9
11 11 10 9 9 9 9 9 8 8 8 8 8 7 8 8 7 8 8 8 8 8 8 8 8 8 8 8 8 8 9 8 8 8 8 8 8 8
11 10 10 9 9 9 9 9 8 8 8 8 7 7 7 7 7 7 7 7 7 7 7 7 7 8 8 8 8 8 7 7 8 7 7 8 8 8
10 10 10 10 9 9 9 9 9 9 8 8 7 7 7 7 7 7 7 7 7 6 6 7 6 7 7 7 7 7 7 7 7 7 7 7 7 7
10 10 10 10 10 9 9 9 9 9 8 8 7 7 7 7 7 6 6 6 6 6 6 6 6 7 7 7 7 7 7 7 7 7 7 7 6 6
10 10 10 10 10 10 10 9 9 9 8 8 7 7 7 7 6 6 6 6 6 6 6 6 6 6 6 7 6 6 6 6 6 6 6 6 6 5
10 10 10 10 10 10 10 9 9 9 9 8 8 7 7 7 6 6 6 6 6 6 6 6 6 6 6 6 6 6 6 6 6 6 5 5 5 5
10 10 10 10 10 10 10 10 9 9 9 8 8 7 7 7 7 6 6 6 6 6 6 5 5 6 6 6 6 6 6 6 5 5 5 5 4 5
10 10 10 10 10 10 10 10 10 9 9 9 8 8 7 7 7 6 6 6 6 5 5 5 5 5 6 6 6 5 5 5 5 5 4 4 3 3
10 10 10 10 10 10 10 10 10 9 9 9 8 8 7 7 7 6 6 6 5 5 5 5 4 5 5 5 5 5 5 5 4 4 4 3 3 3
Wind_Speed
7 7 6 5 4 4 3 3 4 2 1 2 2 4 3 3 2 0 1 3 6 7 6 5 6 6 5 5 6 7 9 11 12 13 14 16 17 21
4 6 4 1 3 5 4 3 4 3 1 0 1 2 4 3 5 5 5 8 11 11 10 9 7 6 6 7 8 10 12 14 15 15 16 18 20 20
4 2 6 8 5 3 4 5 3 3 2 1 3 5 6 5 4 5 7 6 9 14 15 10 5 5 6 9 12 14 14 14 14 14 15 19 21 22
3 5 8 8 7 5 6 5 3 2 3 4 5 6 6 4 3 4 3 5 6 13 16 12 6 4 6 9 12 15 15 14 14 16 17 19 21 23
5 7 7 9 8 7 7 6 4 5 6 7 4 2 2 2 3 2 3 2 3 9 13 13 10 9 8 9 12 13 13 13 15 18 20 20 21 22
6 8 10 9 8 8 7 6 7 8 7 7 4 2 2 2 2 2 2 3 3 4 6 8 8 7 7 8 10 11 12 13 15 17 17 18 19 22
10 11 10 11 11 8 8 6 8 7 6 5 3 3 3 4 3 3 3 3 2 3 4 4 4 4 4 6 8 12 16 17 19 19 18 16 17 18
10 9 9 10 9 11 14 13 11 8 4 3 2 3 3 3 3 3 3 2 2 4 3 4 3 3 4 5 8 11 16 18 19 20 21 20 19 18
8 9 9 8 10 11 13 13 12 9 5 3 2 3 1 3 4 4 3 0 1 3 2 4 3 4 4 6 9 11 13 17 19 19 21 22 21 17
8 7 8 7 9 10 9 10 9 8 6 3 2 2 2 1 1 2 1 2 3 3 2 3 4 4 4 4 8 10 12 14 17 19 21 22 20 12
6 7 9 9 11 13 11 10 10 9 9 13 13 9 9 8 5 5 5 4 2 3 2 2 4 4 4 4 6 13 14 13 15 17 19 18 15 7
6 6 9 11 12 13 10 9 9 6 7 9 10 10 9 8 8 5 2 3 1 3 4 3 4 4 4 4 5 7 10 13 13 11 14 16 14 7
5 4 5 11 11 11 10 7 4 2 6 8 7 7 6 7 7 6 5 4 3 2 5 3 3 4 3 5 5 4 5 7 7 8 12 14 15 11
7 5 4 8 9 8 8 8 8 6 6 6 6 5 5 5 5 6 6 5 5 4 5 5 2 3 3 4 4 5 4 5 6 6 7 10 12 12
8 9 9 8 7 5 7 8 8 6 6 6 4 2 2 3 3 5 6 5 5 9 11 8 5 4 3 3 4 5 5 4 6 6 7 9 10 11
8 7 6 4 4 3 4 5 4 6 5 4 2 2 3 4 5 4 4 6 5 6 8 12 8 5 4 3 4 5 6 6 6 5 6 6 7 8
8 4 2 2 2 2 3 3 3 6 5 3 4 4 5 4 3 4 4 4 4 4 6 7 6 4 2 3 5 5 5 5 6 7 5 4 6 8
7 4 3 4 4 5 5 4 3 5 5 4 4 5 4 3 2 3 3 4 4 3 4 5 6 7 7 5 4 4 5 5 5 7 7 5 6 9
5 4 5 5 4 5 6 6 5 5 6 5 5 5 4 3 3 3 4 4 4 3 3 3 4 4 5 5 6 3 3 4 6 6 6 5 6 7
4 5 5 5 4 5 7 6 5 6 5 5 4 4 4 3 2 2 2 2 2 2 4 4 4 2 0 1 3 4 5 3 3 4 5 4 4 4
6 5 6 5 5 6 8 8 7 7 7 6 5 4 4 4 3 2 2 4 4 3 3 4 5 5 3 1 2 4 5 6 5 3 3 4 4 6
7 7 7 6 5 6 8 8 7 6 7 6 5 5 3 4 4 4 3 4 3 2 1 3 6 6 5 5 2 3 4 6 7 10 10 6 3 3
8 7 7 6 6 6 7 8 8 7 6 6 6 5 4 4 4 4 4 5 3 2 2 4 5 5 5 4 3 3 4 4 4 6 8 9 8 8
Wind_Direction
213 196 188 199 175 142 159 151 116 101 36 43 19 358 6 10 40 107 265 329 346 323 300 294 305 316 321 310 303 290 279 270 263 258 257 257 253 243
189 180 166 128 99 131 147 128 116 137 135 237 21 353 357 350 7 15 24 40 18 354 312 293 289 297 304 312 309 302 288 274 262 251 247 250 251 250
57 108 122 110 109 137 109 116 132 128 126 40 30 19 26 358 357 24 52 35 12 6 354 326 320 327 330 327 318 306 290 280 272 265 260 255 250 246
145 115 112 111 107 99 92 98 107 119 124 101 52 30 23 349 354 36 46 36 17 12 18 33 45 35 5 342 328 315 300 288 280 275 268 259 248 242
118 109 105 101 94 88 83 88 95 92 100 101 82 23 11 346 359 9 51 23 10 20 31 43 54 48 28 8 356 345 326 309 292 280 271 266 258 249
87 80 72 75 85 88 84 74 85 88 89 94 90 34 12 346 18 7 358 6 0 4 20 23 29 24 11 358 348 342 332 322 308 292 278 275 271 264
66 61 61 67 74 79 84 79 84 88 86 83 73 39 12 4 357 341 349 329 321 356 351 343 351 346 342 342 342 339 336 331 324 314 307 298 282 270
78 66 55 57 73 79 78 71 71 82 83 81 76 55 11 340 332 334 351 10 346 340 337 312 325 317 304 311 328 339 341 338 334 328 318 302 292 286
83 76 68 55 69 75 69 62 56 59 68 124 108 68 19 332 331 355 14 357 250 297 316 304 313 297 284 297 312 323 337 344 341 334 326 315 302 290
91 99 95 75 78 85 72 55 39 31 20 27 77 138 159 287 260 243 267 289 269 302 18 307 311 302 299 299 316 316 324 341 347 343 337 327 314 312
91 88 88 81 80 82 78 65 47 25 24 47 57 70 78 59 38 41 18 33 351 302 338 351 318 307 302 305 328 342 338 337 343 348 346 342 332 1
71 64 79 86 81 81 83 77 66 11 17 37 33 32 36 39 42 56 70 93 34 338 331 358 328 334 322 315 333 340 341 339 329 327 346 356 5 23
117 100 84 95 94 90 88 77 83 49 50 57 44 32 21 23 19 25 35 86 79 333 323 349 346 348 341 315 322 332 338 336 331 336 344 352 7 23
149 150 142 125 119 104 89 89 89 83 71 63 53 35 21 8 357 21 30 39 52 37 0 30 26 353 360 348 323 317 320 334 340 352 1 14 9 6
154 159 165 149 117 84 66 81 91 88 82 74 62 26 338 321 1 22 22 21 33 33 31 34 49 30 37 23 336 337 331 333 342 351 6 18 30 22
143 146 157 136 115 103 82 73 99 115 115 116 104 34 14 32 40 25 28 21 32 357 4 25 33 37 17 24 32 360 357 351 340 347 358 9 18 38
135 125 128 140 136 121 108 113 119 116 108 88 83 67 50 44 27 15 39 46 52 10 348 345 350 12 14 4 19 3 347 345 347 349 1 4 8 17
131 143 164 194 186 177 166 160 153 131 124 122 98 82 70 67 47 25 44 67 62 28 1 345 351 5 8 14 46 17 5 346 338 355 11 18 11 17
143 159 170 192 209 188 169 166 162 147 143 130 105 97 94 87 72 40 29 46 49 30 359 348 14 36 30 356 329 24 27 354 356 4 9 24 34 30
161 171 184 200 189 172 168 169 155 149 145 142 131 121 119 118 95 55 37 58 68 39 12 5 10 6 165 249 299 328 22 39 44 22 360 1 12 357
176 185 191 196 179 182 173 166 161 164 158 156 161 162 160 141 121 107 76 79 94 73 35 354 308 289 260 52 16 342 349 18 57 64 18 13 8 4
183 190 197 200 180 178 170 164 167 172 158 160 171 180 179 153 142 132 106 104 103 107 64 330 345 3 25 43 18 327 334 348 16 45 53 73 76 35
184 187 193 203 188 177 176 175 179 184 179 171 178 177 171 163 154 131 121 133 133 107 46 13 8 13 11 15 23 11 2 1 1 9 17 41 71 53
Height
1446 1447 1449 1453 1455 1458 1460 1460 1460 1464 1466 1467 1468 1469 1469 1469 1468 1467 1466 1465 1464 1463 1463 1462 1463 1463 1465 1467 1467 1467 1468 1470 1471 1471 1472 1474 1476 1478
1444 1446 1448 1451 1454 1458 1458 1458 1460 1463 1465 1466 1467 1469 1469 1469 1467 1466 1464 1461 1460 1460 1460 1459 1460 1460 1461 1462 1462 1462 1462 1463 1463 1464 1464 1466 1468 1469
1442 1446 1448 1450 1453 1456 1456 1459 1461 1463 1464 1466 1468 1468 1468 1468 1467 1466 1463 1461 1459 1457 1456 1456 1457 1458 1458 1459 1459 1458 1458 1458 1458 1457 1457 1458 1458 1459
1446 1448 1451 1451 1453 1455 1457 1459 1461 1463 1465 1465 1467 1468 1468 1469 1468 1466 1465 1462 1458 1455 1453 1453 1454 1455 1456 1456 1456 1455 1454 1452 1451 1451 1450 1449 1449 1448
1449 1450 1451 1453 1454 1455 1457 1459 1461 1463 1465 1466 1468 1470 1470 1469 1468 1467 1466 1463 1460 1456 1453 1452 1452 1452 1453 1454 1454 1452 1450 1447 1445 1444 1443 1441 1439 1439
1452 1452 1453 1454 1455 1456 1458 1460 1461 1464 1467 1468 1470 1471 1471 1469 1468 1467 1465 1463 1461 1458 1455 1454 1453 1452 1453 1453 1451 1449 1446 1443 1441 1438 1435 1431 1429 1428
1453 1453 1454 1456 1458 1460 1460 1462 1464 1467 1468 1468 1470 1470 1469 1468 1467 1466 1465 1464 1462 1460 1458 1456 1455 1454 1452 1450 1447 1445 1441 1436 1433 1430 1427 1422 1419 1415
1456 1457 1458 1459 1462 1462 1462 1463 1465 1467 1468 1468 1468 1469 1469 1469 1468 1468 1467 1465 1463 1461 1460 1458 1456 1454 1452 1449 1444 1440 1436 1432 1428 1423 1419 1415 1412 1407
1460 1461 1462 1463 1463 1464 1465 1466 1467 1469 1470 1469 1469 1469 1470 1469 1470 1469 1466 1466 1464 1462 1462 1460 1457 1454 1450 1446 1442 1438 1433 1429 1424 1420 1415 1409 1404 1399
1464 1465 1465 1464 1464 1466 1467 1467 1468 1469 1469 1469 1469 1468 1469 1470 1470 1470 1468 1466 1466 1464 1461 1460 1457 1453 1450 1447 1443 1438 1432 1428 1423 1418 1411 1404 1396 1390
1464 1465 1465 1465 1465 1465 1466 1467 1468 1468 1468 1468 1469 1469 1470 1471 1470 1468 1466 1465 1464 1463 1461 1458 1455 1452 1450 1448 1445 1438 1431 1427 1422 1417 1410 1403 1395 1388
1466 1467 1467 1466 1465 1466 1467 1468 1468 1469 1470 1471 1470 1470 1470 1471 1470 1468 1465 1464 1463 1462 1460 1458 1457 1454 1450 1449 1445 1439 1434 1429 1424 1418 1412 1405 1398 1393
1468 1468 1468 1467 1467 1468 1468 1469 1469 1471 1472 1472 1472 1472 1471 1470 1469 1467 1465 1464 1463 1463 1462 1460 1458 1455 1452 1449 1446 1442 1437 1432 1427 1420 1413 1407 1402 1398
1467 1468 1468 1469 1469 1470 1470 1469 1470 1472 1472 1472 1472 1472 1470 1470 1469 1468 1467 1466 1464 1464 1463 1461 1459 1456 1454 1451 1447 1444 1441 1436 1430 1423 1418 1412 1406 1402
1468 1469 1470 1470 1471 1472 1472 1472 1473 1473 1473 1473 1472 1472 1471 1470 1469 1469 1468 1467 1465 1463 1462 1460 1459 1456 1454 1452 1449 1445 1442 1438 1433 1427 1420 1415 1411 1406
1468 1469 1471 1472 1473 1474 1474 1474 1474 1474 1474 1473 1472 1472 1472 1470 1470 1469 1468 1466 1464 1464 1462 1460 1458 1457 1455 1453 1450 1447 1444 1440 1435 1430 1425 1420 1416 1413
1466 1468 1469 1472 1473 1473 1473 1474 1474 1474 1473 1473 1472 1472 1472 1471 1471 1470 1468 1467 1465 1465 1463 1461 1457 1454 1453 1452 1451 1448 1445 1442 1438 1434 1429 1425 1421 1416
1464 1465 1468 1470 1472 1472 1473 1474 1474 1474 1473 1474 1472 1471 1473 1473 1472 1471 1470 1468 1467 1466 1464 1462 1459 1457 1455 1453 1452 1449 1446 1444 1441 1437 1433 1430 1427 1423
1461 1464 1466 1468 1470 1470 1471 1473 1474 1473 1474 1474 1472 1472 1474 1474 1473 1472 1471 1469 1467 1466 1465 1463 1461 1459 1457 1455 1454 1452 1449 1446 1444 1440 1437 1434 1432 1430
1459 1461 1464 1466 1467 1468 1469 1471 1472 1472 1473 1474 1474 1473 1474 1474 1473 1472 1471 1469 1469 1468 1466 1464 1462 1460 1458 1457 1455 1453 1451 1448 1446 1443 1440 1438 1436 1434
1455 1457 1460 1462 1463 1465 1467 1469 1470 1471 1472 1473 1473 1474 1473 1473 1473 1472 1471 1470 1469 1468 1466 1465 1463 1461 1459 1457 1456 1454 1452 1450 1447 1445 1442 1440 1437 1434
1450 1453 1456 1458 1460 1462 1464 1466 1469 1470 1471 1471 1472 1473 1473 1472 1471 1471 1470 1469 1468 1467 1466 1465 1463 1461 1459 1456 1455 1454 1453 1451 1449 1446 1442 1440 1438 1435
1445 1447 1450 1454 1456 1458 1461 1464 1466 1468 1469 1470 1470 1471 1471 1471 1470 1470 1469 1468 1468 1467 1466 1465 1463 1461 1459 1457 1455 1454 1453 1451 1449 1446 1443 1441 1439 1437